Change the Weather History Date:

Wednesday, November 6, 2013

  Actual Average Record
Temperature  
Mean Temperature 49 °F 40 °F  
Max Temperature 61 °F 54 °F 78 °F (1999)
Min Temperature 37 °F 27 °F 18 °F (1959)
Degree Days  
Heating Degree Days 16 25  
Month to date heating degree days 139 143  
Since 1 July heating degree days 870 900  
Cooling Degree Days 0 0  
Month to date cooling degree days 0 0  
Year to date cooling degree days 878 507  
Moisture  
Dew Point 36 °F    
Average Humidity 64    
Maximum Humidity 85    
Minimum Humidity 42    
Precipitation  
Precipitation 0.00 in 0.03 in 0.48 in (2005)
Month to date precipitation 0.00 0.19  
Year to date precipitation 5.14 7.66  
Sea Level Pressure  
Sea Level Pressure 30.29 in    
Wind  
Wind Speed 9 mph (South)    
Max Wind Speed 15 mph    
Max Gust Speed 20 mph    
T = Trace of Precipitation, MM = Missing Value Source: NWS Daily Summary

Daily Weather History Graph

Daily Weather History Graph

Search for Another Location

Airport or City:

Trip Planner

Search our weather history database for the weather conditions in past years. The results will help you decide how hot, cold, wet, or windy it might be!

Date:

Astronomy

Nov. 06, 2013 Rise Set
Actual Time 6:31 AM PST 4:37 PM PST
Civil Twilight 6:02 AM PST 5:07 PM PST
Nautical Twilight 5:28 AM PST 5:40 PM PST
Astronomical Twilight 4:55 AM PST 6:13 PM PST
Moon 9:53 AM PST (11/6) 7:45 PM PST (11/6)
Length of Visible Light 11h 05m
Length of Day
10h 05m
Waxing Crescent, 14% of the Moon is Illuminated
Nov 6
Waxing Crescent
Nov 9
First Quarter
Nov 17
Full
Nov 25
Last Quarter
Dec 2
New

Hourly Weather History & Observations

Time (PST) Temp. Windchill Dew Point Humidity Pressure Visibility Wind Dir Wind Speed Gust Speed Precip Events Conditions
12:52 AM 41.0 °F 36.4 °F 35.1 °F 79% 30.29 in - South 6.9 mph - N/A   Unknown
1:52 AM 41.0 °F 36.4 °F 36.0 °F 82% 30.29 in - SE 6.9 mph - N/A   Unknown
2:52 AM 41.0 °F 35.2 °F 34.0 °F 76% 30.29 in - SE 9.2 mph - N/A   Unknown
3:52 AM 39.9 °F 33.4 °F 33.1 °F 77% 30.30 in - SE 10.4 mph - N/A   Unknown
4:52 AM 39.9 °F 33.9 °F 32.0 °F 73% 30.31 in - SE 9.2 mph - N/A   Unknown
5:52 AM 37.9 °F 32.1 °F 32.0 °F 79% 30.32 in - SSE 8.1 mph - N/A   Unknown
6:52 AM 39.0 °F 32.3 °F 30.9 °F 73% 30.34 in - SSE 10.4 mph - N/A   Unknown
7:52 AM 44.1 °F 37.7 °F 33.1 °F 65% 30.33 in - SSE 12.7 mph - N/A   Unknown
8:52 AM 48.0 °F - 37.0 °F 66% 30.35 in - South 4.6 mph - N/A   Unknown
9:52 AM 53.1 °F - 37.0 °F 55% 30.35 in - SSW 11.5 mph - N/A   Unknown
10:52 AM 57.0 °F - 39.0 °F 51% 30.32 in - SW 12.7 mph - N/A   Unknown
11:52 AM 57.9 °F - 39.0 °F 49% 30.31 in - South 11.5 mph - N/A   Unknown
12:52 PM 57.9 °F - 39.0 °F 49% 30.28 in - SSE 8.1 mph - N/A   Unknown
1:52 PM 60.1 °F - 37.9 °F 44% 30.27 in - WSW 11.5 mph - N/A   Unknown
2:52 PM 60.1 °F - 37.0 °F 42% 30.26 in - SW 8.1 mph - N/A   Unknown
3:52 PM 57.9 °F - 36.0 °F 44% 30.27 in - WSW 6.9 mph - N/A   Unknown
4:52 PM 51.1 °F - 37.9 °F 61% 30.27 in - SE 9.2 mph - N/A   Unknown
5:52 PM 48.9 °F - 36.0 °F 61% 30.29 in - SE 12.7 mph - N/A   Unknown
6:52 PM 48.0 °F - 36.0 °F 63% 30.29 in - SE 12.7 mph - N/A   Unknown
7:52 PM 46.9 °F - 35.1 °F 63% 30.28 in - SSW 9.2 mph - N/A   Unknown
8:52 PM 46.9 °F - 36.0 °F 66% 30.27 in - South 6.9 mph - N/A   Unknown
9:52 PM 46.0 °F 43.9 °F 36.0 °F 68% 30.25 in - SSE 4.6 mph - N/A   Unknown
10:52 PM 46.9 °F - 35.1 °F 63% 30.22 in - SW 3.5 mph - N/A   Unknown
11:52 PM 45.0 °F 43.5 °F 36.0 °F 71% 30.22 in - West 3.5 mph - N/A   Unknown